Flag for Cuba Weather past 2 weeks in Holguín, Cuba

Now
91 °F

Scattered clouds.


Feels Like: 96 °F
Forecast: 74 / 90 °F
Wind: 14 mph from East

Location: Holguin Civ / Mil

Current Time: Jul 22, 2014 at 5:36:04 PM

Latest Report: Jul 22, 2014 at 12:52 PM


Visibility: 6 mi

Pressure: 30.04 "Hg

Humidity: 46%

Dew point: 68 °F

Location of HolguínLocation

Historic Weather in Holguín — Graph

°F

Holguín temperature yesterday

Maximum temperature yesterday: 95 °F (at 3:50 PM)
Minimum temperature yesterday: 75 °F (at 3:51 AM)
Average temperature yesterday: 82 °F

Past Weeks' High & Low Weather Summary

 TemperatureHumidityPressure
High95 °F (Jul 7, 4:51 PM)94% (Jul 12, 5:51 AM)30.15 "Hg (Jul 12, 5:51 AM)
Low70 °F (Jul 16, 7:50 PM)34% (Jul 15, 3:51 PM)29.92 "Hg (Jul 15, 3:51 PM)
Average82 °F71%30.03 "Hg
* Reported Jul 7 12:50 PM — Jul 22 12:52 PM, Holguín, Weather by CustomWeather, © 2014

Note: Actual official high and low records may vary slightly from our data, if they occured in-between our weather recording intervals... More about our weather records

Advertising

Holguín weather history for previous 24 hours

 ConditionsComfort  
Time TempWeatherWind HumidityBarometerVisibility
12:52 PM
Jul 22
91 °FScattered clouds.14 mph46%30.04 "Hg6 mi
11:50 AM90 °FPassing clouds.13 mph49%30.04 "Hg6 mi
10:51 AM88 °FScattered clouds.12 mph59%30.04 "Hg6 mi
9:51 AM84 °FPassing clouds.13 mph66%30.07 "Hg6 mi
8:54 AM77 °FFog.3 mph89%30.04 "Hg3 mi
7:52 AM73 °FFog.5 mph94%30.04 "Hg1 mi
6:51 AM73 °FFog.2 mph89%30.04 "Hg2 mi
5:51 AM73 °FFog.1 mph94%30.01 "Hg4 mi
3:51 AM75 °FFog.2 mph89%30.01 "Hg4 mi
2:50 AM75 °FPassing clouds.3 mph94%30.01 "Hg6 mi
1:50 AM75 °FPassing clouds.5 mph94%30.04 "HgN/A
12:54 AM77 °FPassing clouds.2 mph89%30.07 "HgN/A
11:51 PM
Jul 21
77 °FPassing clouds.5 mph89%30.07 "HgN/A
10:50 PM79 °FPassing clouds.1 mph84%30.07 "HgN/A
9:50 PM77 °FPassing clouds.6 mph89%30.04 "HgN/A
8:50 PM79 °FPassing clouds.6 mph84%30.04 "HgN/A
7:51 PM79 °FPartly sunny.5 mph84%30.01 "HgN/A
6:52 PM79 °FPartly sunny.7 mph79%29.98 "HgN/A
5:50 PM79 °FThundershowers. Broken clouds.7 mph84%N/A4 mi
Weather by CustomWeather, © 2014

See weather overviewHow to use our weather pages